TOURFACTS.DK  
Stats and Facts from Tour de France.

Tour de France 2018 starts in 261 days
  Riders   Stages   Teams   Summits   Yearly  


 
Search by year

 2017 - St. 21:  14824 starters.
  5131 different riders.
  634 teams.
  2232 stages.
  454 restdays.
  439589.60 km.
  5653 abandonnees.


Top 3
Christopher Froome86:20:55
Rigoberto Uran86:21:49
Romain Bardet86:23:15
Warren Barguil169 pt.
Primoz Roglic80 pt.
Thomas De Gendt64 pt.
Michael Matthews359 pt.
André Greipel234 pt.
Edvald Boasson Hagen220 pt.
Simon Yates86:27:09
Louis Meintjes86:29:15
Emanuel Buchmann86:54:16
Facts from Tour de France 2013
  |   Stages.  |   Stage winners.  |   Days in yellow  |   Average speed.  |   Route.  |   Teams.  |   All riders.  |   Rookies.  |   Withdrawls.  |  

  |   GC.  |   Polka  |   Green  |   White  |   Summits. (In tour)  |   Summits. (Points)  |   Miscellaneous.  |  

Stage 17 on 17 - 07 - 2013
         Owning:    Christopher Froome    
Pick a stage:  1 2 3 4 5 6 7 8 9 10 11 12 13 14 15 16 17 18 19 20 21
  EmbrunChorges | Dist: 32.00 km.
Cat: 2Côte de Puy-SanièresESPAlberto Contador
5 points
 
Cat: 2Côte de RéallonESPJoaquim Rodriguez
5 points
 

Average speed for all riders in stage:  33,680 km./hr.
    Place:Name:Team:Time:Km/h:
KENChristopher FroomeGBRSky Procycling00:51:33  +  00:00:00=37,245 
ESPAlberto ContadorDNKTeam Saxo-Tinkoff00:51:42  +  00:00:09=37,137 
ESPJoaquim RodriguezRUSTeam Katusha00:51:43  +  00:00:10=37,125 
4 CZERoman KreuzigerDNKTeam Saxo-Tinkoff00:51:56  +  00:00:23=36,970 
5 ESPAlejandro ValverdeESPMovistar Team00:52:03  +  00:00:30=36,888 
6 COLNairo QuintanaESPMovistar Team00:52:44  +  00:01:11=36,410 
7 POLMichal KwiatkowskiBELOmega Pharma – Quick Step00:53:06  +  00:01:33=36,158 
8 SUIJakob FuglsangKAZAstana Pro Team00:53:07  +  00:01:34=36,147 
9 USAAndrew TalanskyUSAGarmin Sharp00:53:14  +  00:01:41=36,068 
10 USATejay Van GarderenUSABMC Racing Team00:53:24  +  00:01:51=35,955 
11 NEDBauke MollemaNLDBelkin Pro Cycling00:53:42  +  00:02:09=35,754 
12 BELMaxime MonfortLUXRadioShack Leopard00:53:50  +  00:02:17=35,666 
13 AUSMichael RogersDNKTeam Saxo-Tinkoff00:53:58  +  00:02:25=35,578 
14 ESPJon Izaguirre InsaustiESPEuskaltel - Euskadi00:53:58  +  00:02:25=35,578 
15 LUXAndy SchleckLUXRadioShack Leopard00:54:00  +  00:02:27=35,556 
16 NEDLaurens ten DamNLDBelkin Pro Cycling00:54:02  +  00:02:29=35,534 
17 NEDLieuwe WestraNLDVacansoleil - DCM00:54:02  +  00:02:29=35,534 
18 URSRein TaaramäeFRACofidis – Solutions Crédits00:54:13  +  00:02:40=35,413 
19 BELThomas De GendtNLDVacansoleil - DCM00:54:14  +  00:02:41=35,403 
20 ITAAlessandro De MarchiITACannondale Pro Cycling00:54:15  +  00:02:42=35,392 
21 GERAndréas KlödenLUXRadioShack Leopard00:54:19  +  00:02:46=35,348 
22 ESPDaniel NavarroFRACofidis – Solutions Crédits00:54:22  +  00:02:49=35,316 
23 SVKPeter VelitsBELOmega Pharma – Quick Step00:54:22  +  00:02:49=35,316 
24 FRAArnold JeannessonFRAFDJ.fr00:54:26  +  00:02:53=35,273 
25 FRAChristophe RiblonFRAAg2r La Mondiale00:54:27  +  00:02:54=35,262 
26 FRAAlexandre GeniezFRAFDJ.fr00:54:30  +  00:02:57=35,229 
27 GERTony MartinBELOmega Pharma – Quick Step00:54:39  +  00:03:06=35,133 
28 CANRyder HesjedalUSAGarmin Sharp00:54:40  +  00:03:07=35,122 
29 FRASylvain ChavanelBELOmega Pharma – Quick Step00:54:45  +  00:03:12=35,068 
30 ESPRubén PlazaESPMovistar Team00:54:48  +  00:03:15=35,036 
31 ITAMoreno MoserITACannondale Pro Cycling00:54:53  +  00:03:20=34,983 
32 ENGDaniel MartinUSAGarmin Sharp00:54:55  +  00:03:22=34,962 
33 FRAJérémy RoyFRAFDJ.fr00:55:00  +  00:03:27=34,909 
34 FRARomain SicardESPEuskaltel - Euskadi00:55:01  +  00:03:28=34,899 
35 FRAJohn GadretFRAAg2r La Mondiale00:55:04  +  00:03:31=34,867 
36 FRAJulien El FarèsFRASojasun00:55:16  +  00:03:43=34,741 
37 FRAPierrick FédrigoFRAFDJ.fr00:55:17  +  00:03:44=34,730 
38 ESPMikel NieveESPEuskaltel - Euskadi00:55:18  +  00:03:45=34,720 
39 FRAJérôme CoppelFRACofidis – Solutions Crédits00:55:18  +  00:03:45=34,720 
40 FRARudy MolardFRACofidis – Solutions Crédits00:55:20  +  00:03:47=34,699 
41 AUSStuart O'GradyAUSOrica - GreenEDGE00:55:24  +  00:03:51=34,657 
42 FRARomain BardetFRAAg2r La Mondiale00:55:26  +  00:03:53=34,636 
43 ESPDaniel MorenoRUSTeam Katusha00:55:33  +  00:04:00=34,563 
44 ESPHaimar ZubeldiaLUXRadioShack Leopard00:55:48  +  00:04:15=34,409 
45 FRAAlexis VuillermozFRASojasun00:55:48  +  00:04:15=34,409 
46 GERMarcel KittelNLDArgos–Shimano00:55:50  +  00:04:17=34,388 
47 USATom DanielsonUSAGarmin Sharp00:55:51  +  00:04:18=34,378 
48 FRAJonathan HivertFRASojasun00:55:56  +  00:04:23=34,327 
49 FRAGuillaume LevarletFRACofidis – Solutions Crédits00:55:56  +  00:04:23=34,327 
50 BELPhilippe GilbertUSABMC Racing Team00:56:03  +  00:04:30=34,255 
51 RUSYury TrofimovRUSTeam Katusha00:56:05  +  00:04:32=34,235 
52 GERSimon GeschkeNLDArgos–Shimano00:56:08  +  00:04:35=34,204 
53 BLRKanstantin SivtsovGBRSky Procycling00:56:12  +  00:04:39=34,164 
54 BELBart De ClercqBELLotto-Belisol Team00:56:12  +  00:04:39=34,164 
55 COLJosé SerpaITALampre-Merida00:56:17  +  00:04:44=34,113 
56 MLTDavid MillarUSAGarmin Sharp00:56:18  +  00:04:45=34,103 
57 AUSRichie PorteGBRSky Procycling00:56:22  +  00:04:49=34,063 
58 PORSergio PaulinhoDNKTeam Saxo-Tinkoff00:56:22  +  00:04:49=34,063 
59 NEDTom DumoulinNLDArgos–Shimano00:56:25  +  00:04:52=34,032 
60 SLOKristjan KorenITACannondale Pro Cycling00:56:25  +  00:04:52=34,032 
61 SUISteve MorabitoUSABMC Racing Team00:56:27  +  00:04:54=34,012 
62 NEDLars BoomNLDBelkin Pro Cycling00:56:28  +  00:04:55=34,002 
63 NZLJack BauerUSAGarmin Sharp00:56:40  +  00:05:07=33,882 
64 ESPRuben PerezESPEuskaltel - Euskadi00:56:42  +  00:05:09=33,862 
65 ITADamiano CunegoITALampre-Merida00:56:43  +  00:05:10=33,852 
66 NEDWout PoelsNLDVacansoleil - DCM00:56:45  +  00:05:12=33,833 
67 FRABlel KadriFRAAg2r La Mondiale00:56:45  +  00:05:12=33,833 
68 ESPLuis Angel MateFRACofidis – Solutions Crédits00:56:50  +  00:05:17=33,783 
69 FRAJérôme PineauBELOmega Pharma – Quick Step00:56:51  +  00:05:18=33,773 
70 FRAHubert DupontFRAAg2r La Mondiale00:56:52  +  00:05:19=33,763 
71 ARGJuan Antonio FlechaNLDVacansoleil - DCM00:56:54  +  00:05:21=33,743 
72 NEDJohnny HoogerlandNLDVacansoleil - DCM00:56:54  +  00:05:21=33,743 
73 NEDAlbert TimmerNLDArgos–Shimano00:56:57  +  00:05:24=33,714 
74 FRAKévin RezaFRATeam Europcar00:56:58  +  00:05:25=33,704 
75 FRACyril LemoineFRASojasun00:57:03  +  00:05:30=33,655 
76 FRAAnthony DelaplaceFRASojasun00:57:06  +  00:05:33=33,625 
77 AUSSimon ClarkeAUSOrica - GreenEDGE00:57:07  +  00:05:34=33,615 
78 WALGeraint ThomasGBRSky Procycling00:57:07  +  00:05:34=33,615 
79 ESPIgor AntonESPEuskaltel - Euskadi00:57:12  +  00:05:39=33,566 
80 AUSAdam HansenBELLotto-Belisol Team00:57:13  +  00:05:40=33,557 
81 FRATony GallopinLUXRadioShack Leopard00:57:14  +  00:05:41=33,547 
82 ESPEgoitz GarciaFRACofidis – Solutions Crédits00:57:16  +  00:05:43=33,527 
83 AUSMatthew GossAUSOrica - GreenEDGE00:57:17  +  00:05:44=33,518 
84 FRAJulien SimonFRASojasun00:57:20  +  00:05:47=33,488 
85 USABrent BookwalterUSABMC Racing Team00:57:20  +  00:05:47=33,488 
86 ITARoberto FerrariITALampre-Merida00:57:23  +  00:05:50=33,459 
87 FRAYohann GèneFRATeam Europcar00:57:24  +  00:05:51=33,449 
88 BELJan BakelantsLUXRadioShack Leopard00:57:25  +  00:05:52=33,440 
89 AUSBrett LancasterAUSOrica - GreenEDGE00:57:26  +  00:05:53=33,430 
90 ESPJesus  HernandezDNKTeam Saxo-Tinkoff00:57:29  +  00:05:56=33,401 
91 SVKPeter SaganITACannondale Pro Cycling00:57:31  +  00:05:58=33,382 
92 ITADavide CimolaiITALampre-Merida00:57:31  +  00:05:58=33,382 
93 ITAEnrico GasparottoKAZAstana Pro Team00:57:32  +  00:05:59=33,372 
94 FRAArthur VichotFRAFDJ.fr00:57:35  +  00:06:02=33,343 
95 FRAJérôme CousinFRATeam Europcar00:57:35  +  00:06:02=33,343 
96 ITAElia FavilliITALampre-Merida00:57:38  +  00:06:05=33,314 
97 NEDRobert GesinkNLDBelkin Pro Cycling00:57:39  +  00:06:06=33,304 
98 RSADaryl ImpeyAUSOrica - GreenEDGE00:57:39  +  00:06:06=33,304 
99 ESPMikel AstarlozaESPEuskaltel - Euskadi00:57:39  +  00:06:06=33,304 
100 NORLars Petter NordhaugNLDBelkin Pro Cycling00:57:40  +  00:06:07=33,295 
101 ITADavide MalacarneFRATeam Europcar00:57:40  +  00:06:07=33,295 
102 UZBSergey LagutinNLDVacansoleil - DCM00:57:41  +  00:06:08=33,285 
103 FRACyril GautierFRATeam Europcar00:57:42  +  00:06:09=33,276 
104 BELJürgen RoelandtsBELLotto-Belisol Team00:57:43  +  00:06:10=33,266 
105 ITAAlan MarangoniITACannondale Pro Cycling00:57:46  +  00:06:13=33,237 
106 NEDBram TankinkNLDBelkin Pro Cycling00:57:46  +  00:06:13=33,237 
107 FRASébastien MinardFRAAg2r La Mondiale00:57:48  +  00:06:15=33,218 
108 BELKris BoeckmansNLDVacansoleil - DCM00:57:49  +  00:06:16=33,208 
109 GERAndré GreipelBELLotto-Belisol Team00:57:50  +  00:06:17=33,199 
110 DENLars BakBELLotto-Belisol Team00:57:50  +  00:06:17=33,199 
111 FRAThomas VoecklerFRATeam Europcar00:57:52  +  00:06:19=33,180 
112 ITADaniele BennatiDNKTeam Saxo-Tinkoff00:57:52  +  00:06:19=33,180 
113 GERJohn DegenkolbNLDArgos–Shimano00:57:53  +  00:06:20=33,170 
114 ITAMatteo TrentinBELOmega Pharma – Quick Step00:57:54  +  00:06:21=33,161 
115 BRAMurilo Antonio FischerFRAFDJ.fr00:57:54  +  00:06:21=33,161 
116 RUSPavel BruttRUSTeam Katusha00:57:56  +  00:06:23=33,142 
117 ITAFrancesco GavazziKAZAstana Pro Team00:57:57  +  00:06:24=33,132 
118 ESPJuan José OrozESPEuskaltel - Euskadi00:57:59  +  00:06:26=33,113 
119 FRAJean-Marc MarinoFRASojasun00:57:59  +  00:06:26=33,113 
120 FRABrice FeilluFRASojasun00:58:00  +  00:06:27=33,103 
121 FRAAmaël MoinardUSABMC Racing Team00:58:00  +  00:06:27=33,103 
122 DENBrian VandborgITACannondale Pro Cycling00:58:03  +  00:06:30=33,075 
123 POLMaciej BodnarITACannondale Pro Cycling00:58:05  +  00:06:32=33,056 
124 BLRAliaksandr KuchynskiRUSTeam Katusha00:58:06  +  00:06:33=33,046 
125 FRAChristophe Le MevelFRACofidis – Solutions Crédits00:58:08  +  00:06:35=33,028 
126 NEDBoy van PoppelNLDVacansoleil - DCM00:58:10  +  00:06:37=33,009 
127 CANDavid VeilleuxFRATeam Europcar00:58:11  +  00:06:38=32,999 
128 POLPrzemyslaw NiemiecITALampre-Merida00:58:13  +  00:06:40=32,980 
129 ITAMatteo TosattoDNKTeam Saxo-Tinkoff00:58:13  +  00:06:40=32,980 
130 BELGert SteegmansBELOmega Pharma – Quick Step00:58:14  +  00:06:41=32,971 
131 NEDRoy CurversNLDArgos–Shimano00:58:16  +  00:06:43=32,952 
132 GERJens VoigtLUXRadioShack Leopard00:58:20  +  00:06:47=32,914 
133 ESPAlberto LosadaRUSTeam Katusha00:58:22  +  00:06:49=32,895 
134 PORRui CostaESPMovistar Team00:58:23  +  00:06:50=32,886 
135 AUSSimon GerransAUSOrica - GreenEDGE00:58:23  +  00:06:50=32,886 
136 NZLGregory HendersonBELLotto-Belisol Team00:58:24  +  00:06:51=32,877 
137 SUIMichael AlbasiniAUSOrica - GreenEDGE00:58:26  +  00:06:53=32,858 
138 RUSEduard VorganovRUSTeam Katusha00:58:28  +  00:06:55=32,839 
139 FRAPierre RollandFRATeam Europcar00:58:28  +  00:06:55=32,839 
140 GERMarcel SiebergBELLotto-Belisol Team00:58:30  +  00:06:57=32,821 
141 NEDTom LeezerNLDBelkin Pro Cycling00:58:30  +  00:06:57=32,821 
142 ESPImanol ErvitiESPMovistar Team00:58:32  +  00:06:59=32,802 
143 LUXLaurent DidierLUXRadioShack Leopard00:58:34  +  00:07:01=32,783 
144 NORAlexander KristoffRUSTeam Katusha00:58:36  +  00:07:03=32,765 
145 IOMPeter KennaughGBRSky Procycling00:58:37  +  00:07:04=32,755 
146 ESPMarkel IrizarLUXRadioShack Leopard00:58:37  +  00:07:04=32,755 
147 BELMaarten WynantsNLDBelkin Pro Cycling00:58:38  +  00:07:05=32,746 
148 ITAFabio SabatiniITACannondale Pro Cycling00:58:39  +  00:07:06=32,737 
149 AUSCameron MeyerAUSOrica - GreenEDGE00:58:43  +  00:07:10=32,699 
150 FRANicolas RocheDNKTeam Saxo-Tinkoff00:58:46  +  00:07:13=32,672 
151 ITAManuel QuinziatoUSABMC Racing Team00:58:46  +  00:07:13=32,672 
152 GERMarcus BurghardtUSABMC Racing Team00:58:50  +  00:07:17=32,635 
153 JPNYukiya ArashiroFRATeam Europcar00:58:50  +  00:07:17=32,635 
154 FRAMaxime MederelFRASojasun00:58:51  +  00:07:18=32,625 
155 BELFrederik WillemsBELLotto-Belisol Team00:58:58  +  00:07:25=32,561 
156 NEDKoen De KortNLDArgos–Shimano00:58:59  +  00:07:26=32,552 
157 ITAManuele MoriITALampre-Merida00:58:59  +  00:07:26=32,552 
158 ESPJosé Joaquin RojasESPMovistar Team00:59:04  +  00:07:31=32,506 
159 BELSep VanmarckeNLDBelkin Pro Cycling00:59:06  +  00:07:33=32,487 
160 IOMMark CavendishBELOmega Pharma – Quick Step00:59:08  +  00:07:35=32,469 
161 CRCAndrey AmadorESPMovistar Team00:59:17  +  00:07:44=32,387 
162 KAZAssan BazayevKAZAstana Pro Team00:59:19  +  00:07:46=32,369 
163 NEDNiki TerpstraBELOmega Pharma – Quick Step00:59:27  +  00:07:54=32,296 
164 FRASamuel DumoulinFRAAg2r La Mondiale00:59:32  +  00:07:59=32,251 
165 CANSvein TuftAUSOrica - GreenEDGE00:59:34  +  00:08:01=32,233 
166 GERJohannes FröhlingerNLDArgos–Shimano00:59:36  +  00:08:03=32,215 
167 AUSCadel EvansUSABMC Racing Team00:59:37  +  00:08:04=32,206 
168 ESPJonathan CastroviejoESPMovistar Team00:59:38  +  00:08:05=32,197 
169 URSGatis SmukulisRUSTeam Katusha00:59:48  +  00:08:15=32,107 
170 ESPDavid LopezGBRSky Procycling00:59:53  +  00:08:20=32,062 
171 ESPJuan LobatoESPEuskaltel - Euskadi00:59:58  +  00:08:25=32,018 
172 ENGIan StannardGBRSky Procycling01:00:21  +  00:08:48=31,814 
173 KAZDmitriy MuravyevKAZAstana Pro Team01:00:36  +  00:09:03=31,683 
174 KAZAlexey LutsenkoKAZAstana Pro Team01:01:05  +  00:09:32=31,432 
175 URSRamunas NavardauskasUSAGarmin Sharp01:01:28  +  00:09:55=31,236 
176 NEDTom VeelersNLDArgos–Shimano01:02:00  +  00:10:27=30,968 
177 FRAWilliam BonnetFRAFDJ.fr01:02:12  +  00:10:39=30,868 

Withdrawls: 2
 
Rider
Team
Reason
81  FRAJean-Christophe PeraudFRAAg2r La MondialeDid not finish
113  ESPGorka Izaguirre InsaustiESPEuskaltel - EuskadiDid not start

Todays birthdays.

1876  Hippolyte Aucouturier
1885  Ernesto Azzini
1939  Horst Oldenburg
1952  Gilbert Le Lay